Regional Weather Roundup
Issued by NWS

Home | Current Version | Previous Version | Graphics & Text | Print | Product List | Glossary On
Versions: 1 2 3 4 5 6 7 8 9 10 11 12 13 14 15 16 17 18 19 20 21 22 23 24 25 26 27 28 29 30 31 32 33 34 35 36 37 38 39 40 41 42 43 44 45 46 47 48 49 50
000
ASUS43 KLOT 102303
RWRIL

ILLINOIS REGIONAL WEATHER ROUNDUP
NATIONAL WEATHER SERVICE CHICAGO/ROMEOVILLE IL
500 PM CST SUN DEC 10 2017

NOTE: "FAIR" INDICATES FEW OR NO CLOUDS BELOW 12,000 FEET WITH NO
SIGNIFICANT WEATHER AND/OR OBSTRUCTIONS TO VISIBILITY.

* THESE STATIONS ARE NOT UNDER NWS QUALITY CONTROL. THEY ALSO MAY NOT
  REPORT WEATHER SUCH AS PRECIPITATION OR FOG.

ILZ001-002-007-009-015-016-024-110000-
NORTHWEST ILLINOIS

CITY           SKY/WX    TMP DP  RH WIND       PRES   REMARKS
MOLINE         NOT AVBL
STERLING*      CLOUDY    33  22  63 NW9       30.04R WCI  25
SAVANNA*       CLOUDY    31  22  66 N7        30.05R WCI  25
$$

ILZ003-004-008-010-011-017-018-110000-
NORTH CENTRAL ILLINOIS

CITY           SKY/WX    TMP DP  RH WIND       PRES   REMARKS
ROCKFORD       CLOUDY    31  20  63 NW7       30.03R WCI  24
FREEPORT*      CLOUDY    29  20  68 NW10      30.04R WCI  20
ROCHELLE*      CLOUDY    31  21  67 NW6       30.04R WCI  25
DE KALB*       CLOUDY    31  21  65 NW7       30.01R WCI  24
PERU*          CLOUDY    32  21  63 NW12      30.04R WCI  23
$$

ILZ005-006-012>014-019>023-110000-
NORTHEAST ILLINOIS

CITY           SKY/WX    TMP DP  RH WIND       PRES   REMARKS
CHICAGO-OHARE  MOCLDY    31  20  63 NW13      30.00R WCI  21
CHICAGO-MIDWAY MOCLDY    32  20  61 NW10      30.00R WCI  24
AURORA         CLOUDY    32  21  64 NW9       30.02R WCI  24
LANSING*       CLOUDY    32  23  70 NW9       30.00R WCI  24
WAUKEGAN       CLOUDY    28  20  71 NW3       30.00R
DUPAGE AIRPORT CLOUDY    31  21  66 NW10      30.00R WCI  22
KANKAKEE*      CLOUDY    33  21  61 NW14      30.01R WCI  24
WHEELING       PTCLDY    30  21  69 NW8       30.02R WCI  22
MORRIS*        CLOUDY    31  20  64 NW8       30.02R WCI  24
ROMEOVILLE*    CLOUDY    31  22  68 NW10      30.01R WCI  22
NORTHERLY ISL    N/A     31  20  63 W8          N/A  WCI  24
$$

LMZ740>746-110000-
SOUTHERN LAKE MICHIGAN

STATION/POSITION SKY/WX   TEMP    WIND        PRES    VSBY  WAVE
                          AIR SEA DIR/SP/G                  HT/PER
                          (F)     (DEG/KT/KT) (MB)    (MI)  (FT/S)
HARRISON CRIB              32     310/ 17/ 18   N/A
BURNHAM HARBOR             31     300/  7/ 13   N/A
CALUMET HARBOR             31     300/  8/ 11 1014.8R
BURNS HARBOR               33     320/ 13/ 17 1015.2R
MICHIGAN CITY              32     300/ 15/ 17   N/A
$$

ILZ025>027-034>036-040-047-049-050-058-095>099-110000-
WEST-CENTRAL ILLINOIS

CITY           SKY/WX    TMP DP  RH WIND       PRES   REMARKS
QUINCY         CLOUDY    38  24  57 NW8       30.06R WCI  32
GALESBURG*     CLEAR     32  25  74 NW5       30.06R WCI  27
MACOMB*        CLOUDY    37  25  60 NW9       30.08R WCI  30
JACKSONVILLE*  CLOUDY    35  22  58 W7        30.05R WCI  29
PITTSFIELD*    CLOUDY    40  25  53 NW3       30.07R
$$

ILZ028>032-037-038-041>044-048-051>054-059>061-110000-
CENTRAL ILLINOIS

CITY           SKY/WX    TMP DP  RH WIND       PRES   REMARKS
PONTIAC        CLEAR     32  23  69 NW8       30.03R WCI  25
BLOOMINGTON    CLEAR     35  23  61 NW10      30.03R WCI  27
DECATUR        CLOUDY    38  24  57 NW10      30.04R WCI  31
PEORIA         CLEAR     36  24  62 NW6       30.05R WCI  31
LACON*         CLEAR     32  22  67 N10       30.04R WCI  24
LINCOLN*       CLOUDY    37  26  63 NW5       30.05R WCI  33
SPRINGFIELD    CLOUDY    40  24  53 W8        30.05R
TAYLORVILLE    CLOUDY    38  23  56 W7        30.05R WCI  32
$$

ILZ033-039-045-046-055>057-062-063-110000-
EAST-CENTRAL ILLINOIS

CITY           SKY/WX    TMP DP  RH WIND       PRES   REMARKS
CHAMPAIGN      CLEAR     33  21  61 W8        30.02R WCI  26
DANVILLE*      CLEAR     33  22  63 W9        29.98R WCI  25
RANTOUL*       CLEAR     36  25  63 NW10      30.01R WCI  28
MATTOON        CLOUDY    37  24  59 W10       30.02R WCI  30
PARIS*         CLEAR     33  23  68 W7        30.02R WCI  27
$$

ILZ079-100>102-110000-
SOUTHWEST ILLINOIS

CITY           SKY/WX    TMP DP  RH WIND       PRES   REMARKS
ALTON          CLEAR     43  28  56 W12       30.06R
BELLEVILLE     CLEAR     46  24  42 NW6       30.05R
CAHOKIA*       CLEAR     48  23  37 W7        30.06R
$$

ILZ064>066-069>071-074>076-080>082-084>086-088>090-092>094-110000-
SOUTH-CENTRAL ILLINOIS

CITY           SKY/WX    TMP DP  RH WIND       PRES   REMARKS
CARBONDALE     CLEAR     42  27  55 SW8       30.06R
CAIRO*         CLEAR     47  33  58 SW10      30.09R
EFFINGHAM*     CLOUDY    39  26  59 W5        30.05R
MARION         CLEAR     46  28  49 SW17      30.06R
MT. VERNON     CLEAR     43  26  51 CALM      30.06R
CENTRALIA*     CLOUDY    44  28  52 NW6       30.05R
SALEM*         CLOUDY    43  25  49 W5        30.05R
METROPOLIS*    CLEAR     46  31  54 SW6       30.09R
$$

ILZ067-068-072-073-078-083-087-091-110000-
SOUTHEAST ILLINOIS

CITY           SKY/WX    TMP DP  RH WIND       PRES   REMARKS
LAWRENCEVILLE  CLEAR     39  24  55 W8        30.04R WCI  33
FLORA*         CLEAR     43  26  51 W6        30.05R
FAIRFIELD*     CLEAR     41  26  53 CALM      30.05R
HARRISBURG*    CLEAR     44  30  58 SW7       30.06R
ROBINSON*      CLEAR     35  24  63 W8        30.05R WCI  29
CARMI*         CLEAR     41  27  57 SW8       30.04R
$$

ABBREVIATIONS USED IN REMARKS
   TC - TEMPERATURE IN CELSIUS
  WCI - WIND CHILL INDEX
   HX - HEAT INDEX
  VSB - VISIBILITY
$$





USA.gov is the U.S. government's official web portal to all federal, state and local government web resources and services.